TimeCDT,TemperatureF,Dew PointF,Humidity,Sea Level PressureIn,VisibilityMPH,Wind Direction,Wind SpeedMPH,Gust SpeedMPH,PrecipitationIn,Events,Conditions,WindDirDegrees,DateUTC
12:15 AM,55.4,55.4,100,29.74,8.0,NNW,6.9,-,N/A,,Partly Cloudy,340,2012-10-02 05:15:00
12:35 AM,53.6,53.6,100,29.74,8.0,Calm,Calm,-,0.00,,Clear,0,2012-10-02 05:35:00
12:55 AM,53.6,53.6,100,29.74,10.0,NNW,6.9,-,0.00,,Clear,330,2012-10-02 05:55:00
1:15 AM,53.6,53.6,100,29.74,10.0,Calm,Calm,-,0.00,,Clear,0,2012-10-02 06:15:00
1:35 AM,53.6,53.6,100,29.74,8.0,Calm,Calm,-,0.00,,Clear,0,2012-10-02 06:35:00
1:55 AM,53.6,53.6,100,29.75,9.0,Calm,Calm,-,0.00,,Clear,0,2012-10-02 06:55:00
2:15 AM,53.6,53.6,100,29.74,8.0,NW,4.6,-,0.00,,Clear,320,2012-10-02 07:15:00
2:35 AM,53.6,53.6,100,29.74,8.0,Calm,Calm,-,0.00,,Clear,0,2012-10-02 07:35:00
2:55 AM,53.6,53.6,100,29.74,7.0,NW,9.2,-,N/A,,Clear,320,2012-10-02 07:55:00
3:15 AM,53.6,53.6,100,29.74,10.0,NW,9.2,-,0.00,,Clear,320,2012-10-02 08:15:00
3:35 AM,53.6,53.6,100,29.74,10.0,NW,10.4,-,0.00,,Clear,320,2012-10-02 08:35:00
3:55 AM,53.6,53.6,100,29.75,8.0,NW,6.9,-,0.00,,Clear,320,2012-10-02 08:55:00
4:15 AM,53.6,53.6,100,29.75,10.0,NW,6.9,-,0.00,,Clear,310,2012-10-02 09:15:00
4:35 AM,53.6,53.6,100,29.76,8.0,NW,5.8,-,0.00,,Clear,310,2012-10-02 09:35:00
4:55 AM,51.8,51.8,100,29.76,10.0,NW,4.6,-,0.00,,Clear,320,2012-10-02 09:55:00
5:15 AM,51.8,51.8,100,29.77,10.0,NW,3.5,-,0.00,,Clear,320,2012-10-02 10:15:00
5:55 AM,51.8,51.8,100,29.79,10.0,WNW,5.8,-,0.00,,Clear,290,2012-10-02 10:55:00
6:15 AM,51.8,51.8,100,29.80,8.0,West,6.9,-,0.00,,Clear,280,2012-10-02 11:15:00
6:35 AM,51.8,51.8,100,29.80,10.0,WNW,6.9,-,0.00,,Clear,290,2012-10-02 11:35:00
6:50 AM,51.8,51.8,100,29.81,10.0,WNW,17.3,-,N/A,,Clear,290,2012-10-02 11:50:00
7:50 AM,51.8,51.8,100,29.84,10.0,WNW,4.6,-,N/A,,Clear,290,2012-10-02 12:50:00
9:50 AM,60.8,51.8,72,29.86,10.0,NNW,8.1,-,N/A,,Clear,330,2012-10-02 14:50:00
10:55 AM,64.4,50.0,59,29.87,10.0,NW,8.1,-,N/A,,Clear,310,2012-10-02 15:55:00
11:55 AM,66.2,48.2,52,29.87,10.0,Calm,Calm,-,N/A,,Clear,0,2012-10-02 16:55:00
12:50 PM,68.0,46.4,46,29.88,10.0,NNW,8.1,-,N/A,,Clear,330,2012-10-02 17:50:00
1:50 PM,69.8,50.0,49,29.86,10.0,WNW,11.5,-,N/A,,Partly Cloudy,300,2012-10-02 18:50:00
2:50 PM,71.6,48.2,43,29.85,10.0,West,8.1,-,N/A,,Clear,270,2012-10-02 19:50:00
5:50 PM,69.8,46.4,43,29.88,10.0,West,8.1,-,N/A,,Clear,270,2012-10-02 22:50:00
6:50 PM,64.4,46.4,52,29.91,10.0,Calm,Calm,-,N/A,,Clear,0,2012-10-02 23:50:00
8:55 PM,55.4,53.6,94,29.94,10.0,Calm,Calm,-,0.00,,Clear,0,2012-10-03 01:55:00
9:15 PM,55.4,51.8,88,29.94,10.0,Calm,Calm,-,0.00,,Clear,0,2012-10-03 02:15:00
9:35 PM,55.4,51.8,88,29.95,10.0,Calm,Calm,-,0.00,,Clear,0,2012-10-03 02:35:00
9:55 PM,55.4,51.8,88,29.95,9.0,Calm,Calm,-,0.00,,Clear,0,2012-10-03 02:55:00
10:15 PM,53.6,51.8,94,29.96,10.0,Calm,Calm,-,0.00,,Clear,0,2012-10-03 03:15:00
10:35 PM,53.6,51.8,94,29.96,8.0,Calm,Calm,-,0.00,,Clear,0,2012-10-03 03:35:00
10:55 PM,53.6,51.8,94,29.96,10.0,Calm,Calm,-,0.00,,Clear,0,2012-10-03 03:55:00
11:15 PM,53.6,51.8,94,29.96,10.0,Calm,Calm,-,0.00,,Clear,0,2012-10-03 04:15:00
11:35 PM,53.6,51.8,94,29.96,10.0,South,5.8,-,0.00,,Clear,180,2012-10-03 04:35:00
11:55 PM,53.6,51.8,94,29.97,8.0,South,4.6,-,0.00,,Clear,180,2012-10-03 04:55:00